Waarnemingen

Advertentie
Mijn weer
Semmerzake, België (6428): temperatuur & dauwpunt: 08.08.2018 17:00:00 - 14.08.2018 17:00:00 (CEST)Semmerzake, België (6428): windsnelheid & windstoten: 08.08.2018 17:00:00 - 14.08.2018 17:00:00 (CEST)Semmerzake, België (6428): windrichting: 08.08.2018 17:00:00 - 14.08.2018 17:00:00 (CEST)Semmerzake, België (6428): luchtdruk: 08.08.2018 17:00:00 - 14.08.2018 17:00:00 (CEST)Semmerzake, België (6428): zicht: 08.08.2018 17:00:00 - 14.08.2018 17:00:00 (CEST)
Datum & Tijd tt [°C] td [°C] ff [km/u] ff [kn] fx [km/u] fx [kn] dd ppp [hPa] vv [km]
14.08.2018 17:00:00 21,3 13,0 11 6 - - NW 1017,7 20
14.08.2018 16:00:00 21,5 12,5 11 6 29 16 W 1017,7 20
14.08.2018 15:00:00 21,6 13,7 14 8 29 16 W 1017,2 20
14.08.2018 14:00:00 21,8 14,7 11 6 - - W 1016,7 20
14.08.2018 13:00:00 20,6 15,7 11 6 25 14 W 1016,3 20
14.08.2018 12:00:00 19,9 16,2 11 6 25 14 W 1016,2 20
14.08.2018 11:00:00 19,2 16,1 11 6 - - W 1015,7 18
14.08.2018 10:00:00 18,7 16,7 7 4 22 12 W 1015,3 12
14.08.2018 09:00:00 18,4 16,9 11 6 18 10 WZW 1014,6 10
14.08.2018 08:00:00 16,5 16,2 7 4 - - WZW 1014,1 4,4
14.08.2018 07:00:00 15,6 15,3 4 2 11 6 N 1013,2 3,7
14.08.2018 06:00:00 16,0 15,6 7 4 14 8 WZW 1012,6 5
14.08.2018 05:00:00 16,7 15,9 7 4 - - ZW 1012,2 9
14.08.2018 04:00:00 16,6 15,7 7 4 11 6 ZW 1011,7 12
14.08.2018 03:00:00 16,1 15,2 7 4 14 8 ZW 1011,5 15
14.08.2018 02:00:00 16,1 15,0 7 4 - - ZW 1011,5 20
14.08.2018 01:00:00 16,1 14,8 7 4 14 8 ZW 1010,8 19
14.08.2018 00:00:00 16,6 14,6 7 4 22 12 ZW 1010,3 20
13.08.2018 23:00:00 17,4 14,9 11 6 - - WZW 1010,0 20
13.08.2018 22:00:00 18,3 15,1 11 6 22 12 W 1009,7 20
13.08.2018 21:00:00 18,8 15,1 7 4 22 12 WZW 1009,1 20
13.08.2018 20:00:00 19,7 16,3 7 4 - - WZW 1008,5 20
13.08.2018 19:00:00 18,9 16,3 7 4 18 10 WZW 1008,1 20
13.08.2018 18:00:00 18,2 16,4 7 4 18 10 ZW 1007,8 20
13.08.2018 17:00:00 17,5 15,5 7 4 - - ZW 1007,8 20
13.08.2018 16:00:00 20,2 14,9 14 8 32 18 WZW 1007,3 20
13.08.2018 15:00:00 20,2 15,1 18 10 32 18 WZW 1007,3 20
13.08.2018 14:00:00 19,0 15,4 18 10 - - ZW 1007,3 20
13.08.2018 13:00:00 20,0 14,8 18 10 32 18 ZW 1007,1 20
13.08.2018 12:00:00 19,2 14,5 14 8 29 16 W 1006,8 20
13.08.2018 11:00:00 18,5 16,7 11 6 - - ZW 1006,7 20
13.08.2018 10:00:00 17,2 16,5 11 6 25 14 ZZW 1006,5 20
13.08.2018 09:00:00 17,0 16,3 14 8 22 12 Z 1006,5 17
13.08.2018 08:00:00 16,7 16,2 7 4 - - ZW 1006,6 12
13.08.2018 07:00:00 16,7 16,2 11 6 18 10 Z 1006,2 11
13.08.2018 06:00:00 16,7 16,0 7 4 14 8 Z 1006,3 8
13.08.2018 05:00:00 16,7 15,9 7 4 - - N 1006,5 11
13.08.2018 04:00:00 16,6 15,8 4 2 7 4 N 1006,7 7
13.08.2018 03:00:00 17,3 16,2 4 2 7 4 N 1007,5 14
13.08.2018 02:00:00 17,6 16,8 4 2 - - N 1008,5 11
13.08.2018 01:00:00 18,8 15,5 7 4 11 6 W 1009,1 13
13.08.2018 00:00:00 20,7 14,4 7 4 11 6 NW 1008,5 20
12.08.2018 23:00:00 22,5 13,2 4 2 - - N 1008,6 20
12.08.2018 22:00:00 22,7 13,4 4 2 11 6 N 1008,8 12
12.08.2018 21:00:00 22,6 14,8 4 2 7 4 N 1009,2 20
12.08.2018 20:00:00 24,5 13,2 4 2 - - N 1009,2 20
12.08.2018 19:00:00 25,3 12,5 4 2 22 12 N 1010,1 20
12.08.2018 18:00:00 25,7 11,3 11 6 22 12 Z 1010,6 20
12.08.2018 17:00:00 26,4 11,7 14 8 - - ZZW 1011,2 20
12.08.2018 16:00:00 26,8 11,3 11 6 32 18 Z 1012,0 20
12.08.2018 15:00:00 26,1 10,9 11 6 32 18 Z 1012,7 20
12.08.2018 14:00:00 25,5 11,0 18 10 - - ZZW 1013,7 20
12.08.2018 13:00:00 24,9 11,1 18 10 32 18 Z 1014,6 20
12.08.2018 12:00:00 23,8 10,6 14 8 29 16 Z 1015,1 20
12.08.2018 11:00:00 22,3 9,5 14 8 - - Z 1015,5 20
12.08.2018 10:00:00 20,3 9,4 14 8 29 16 Z 1015,8 20
12.08.2018 09:00:00 18,3 9,3 14 8 22 12 Z 1016,5 20
12.08.2018 08:00:00 17,2 8,8 14 8 - - Z 1016,6 20
12.08.2018 07:00:00 16,0 9,1 7 4 22 12 Z 1017,0 20
12.08.2018 06:00:00 16,2 9,3 14 8 22 12 ZZO 1017,2 20
12.08.2018 05:00:00 16,0 8,8 11 6 - - Z 1017,7 20
12.08.2018 04:00:00 16,5 9,0 7 4 14 8 ZZO 1018,6 20
12.08.2018 03:00:00 16,1 9,7 4 2 7 4 N 1019,2 20
12.08.2018 02:00:00 16,2 9,3 4 2 - - N 1020,0 20
12.08.2018 01:00:00 16,0 10,2 4 2 7 4 N 1020,6 20
12.08.2018 00:00:00 16,0 10,0 7 4 7 4 N 1021,0 20
11.08.2018 23:00:00 15,4 10,8 4 2 - - N 1021,5 20
11.08.2018 22:00:00 17,2 9,4 4 2 7 4 N 1022,0 20
11.08.2018 21:00:00 18,5 9,6 4 2 11 6 N 1021,7 20
11.08.2018 20:00:00 20,7 8,7 7 4 - - ZW 1021,8 20
11.08.2018 19:00:00 21,0 7,9 4 2 18 10 N 1022,2 20
11.08.2018 18:00:00 21,1 7,8 11 6 22 12 ZZW 1022,6 20
11.08.2018 17:00:00 21,3 7,0 7 4 - - WZW 1023,0 20
11.08.2018 16:00:00 20,4 7,1 7 4 22 12 W 1023,6 20
11.08.2018 15:00:00 19,9 7,8 11 6 18 10 WZW 1023,8 20
11.08.2018 14:00:00 19,3 7,7 11 6 - - W 1024,2 20
11.08.2018 13:00:00 19,1 7,3 7 4 22 12 W 1024,2 20
11.08.2018 12:00:00 17,9 8,2 7 4 18 10 W 1024,2 20
11.08.2018 11:00:00 17,4 9,1 11 6 - - WZW 1024,2 20
11.08.2018 10:00:00 16,5 10,7 11 6 18 10 WZW 1024,2 20
11.08.2018 09:00:00 15,1 11,6 7 4 14 8 WZW 1023,7 20
11.08.2018 08:00:00 12,5 10,9 4 2 - - N 1023,3 20
11.08.2018 07:00:00 11,3 10,4 4 2 11 6 N 1022,8 20
11.08.2018 06:00:00 11,6 10,8 7 4 11 6 N 1022,5 20
11.08.2018 05:00:00 12,1 11,3 4 2 - - N 1022,1 20
11.08.2018 04:00:00 12,8 11,9 7 4 14 8 ZW 1021,8 20
11.08.2018 03:00:00 13,5 12,3 7 4 18 10 ZW 1021,7 20
11.08.2018 02:00:00 13,4 12,0 11 6 - - ZW 1021,6 20
11.08.2018 01:00:00 13,8 13,1 11 6 25 14 ZW 1021,5 20
11.08.2018 00:00:00 13,6 13,0 11 6 29 16 WZW 1021,0 14
10.08.2018 23:00:00 15,1 13,5 14 8 - - ZW 1020,6 8
10.08.2018 22:00:00 15,6 13,3 7 4 22 12 ZW 1020,7 20
10.08.2018 21:00:00 15,8 12,5 11 6 40 21 WZW 1020,6 18
10.08.2018 20:00:00 19,2 9,2 22 12 - - WZW 1020,2 20
10.08.2018 19:00:00 20,2 8,3 18 10 36 19 ZW 1020,0 20
10.08.2018 18:00:00 20,7 8,1 22 12 43 23 ZW 1020,1 20
10.08.2018 17:00:00 21,0 8,4 25 14 - - ZZW 1020,2 20
10.08.2018 16:00:00 20,7 8,8 25 14 40 21 ZW 1021,0 20
10.08.2018 15:00:00 18,3 10,9 7 4 32 18 ZW 1021,3 20
10.08.2018 14:00:00 19,0 11,1 18 10 - - ZZW 1021,7 20
10.08.2018 13:00:00 15,6 11,2 22 12 40 21 ZZW 1022,1 20
10.08.2018 12:00:00 18,1 10,8 18 10 36 19 ZW 1021,8 20
10.08.2018 11:00:00 17,5 12,0 18 10 - - ZZW 1021,7 20
10.08.2018 10:00:00 15,8 11,5 14 8 32 18 ZW 1021,7 20
10.08.2018 09:00:00 14,2 11,4 18 10 29 16 ZZW 1021,3 20
10.08.2018 08:00:00 13,1 11,4 18 10 - - ZZW 1021,1 20
10.08.2018 07:00:00 12,6 11,2 14 8 25 14 ZZW 1020,3 20
10.08.2018 06:00:00 12,5 11,4 11 6 22 12 ZZW 1019,8 20
10.08.2018 05:00:00 12,8 11,6 11 6 - - ZZW 1019,7 20
10.08.2018 04:00:00 12,8 12,0 11 6 18 10 Z 1019,5 17
10.08.2018 03:00:00 12,6 11,7 7 4 18 10 Z 1019,2 20
10.08.2018 02:00:00 12,6 11,6 7 4 - - ZZW 1019,2 20
10.08.2018 01:00:00 13,3 12,4 11 6 22 12 ZW 1018,6 20
10.08.2018 00:00:00 13,5 12,7 11 6 18 10 ZW 1017,7 20
09.08.2018 23:00:00 14,1 12,9 11 6 - - WZW 1016,7 20
09.08.2018 22:00:00 14,5 13,2 14 8 32 18 W 1015,7 20
09.08.2018 21:00:00 14,8 13,8 18 10 36 19 WZW 1013,7 20
09.08.2018 20:00:00 14,9 14,1 18 10 - - W 1011,8 10
09.08.2018 19:00:00 17,6 15,7 18 10 32 18 WZW 1009,7 20
09.08.2018 18:00:00 17,5 16,2 18 10 40 21 WZW 1008,8 20
09.08.2018 17:00:00 18,1 16,6 22 12 - - ZZW 1007,2 20
09.08.2018 16:00:00 18,0 17,6 4 2 18 10 N 1006,8 1,8
09.08.2018 15:00:00 17,3 17,0 11 6 18 10 NO 1007,2 2,8
09.08.2018 14:00:00 17,1 16,9 7 4 - - NO 1008,3 2,8
09.08.2018 13:00:00 16,6 16,3 7 4 22 12 ONO 1008,7 3,4
09.08.2018 12:00:00 17,2 15,2 7 4 18 10 ONO 1009,3 7
09.08.2018 11:00:00 18,0 13,9 7 4 - - NO 1010,0 20
09.08.2018 10:00:00 18,0 13,0 7 4 22 12 ONO 1011,0 7
09.08.2018 09:00:00 17,5 12,3 11 6 22 12 ONO 1011,5 20
09.08.2018 08:00:00 16,2 12,4 7 4 - - NNO 1012,3 20
09.08.2018 07:00:00 14,8 13,0 4 2 7 4 N 1013,2 20
09.08.2018 06:00:00 14,6 11,9 4 2 7 4 N 1013,1 20
09.08.2018 05:00:00 15,0 13,3 4 2 - - N 1013,8 20
09.08.2018 04:00:00 15,0 13,0 4 2 7 4 N 1014,2 20
09.08.2018 03:00:00 15,5 12,2 4 2 4 2 N 1014,7 20
09.08.2018 02:00:00 14,6 11,5 4 2 - - N 1015,2 20
09.08.2018 01:00:00 15,1 11,6 4 2 7 4 N 1015,6 20
09.08.2018 00:00:00 15,5 11,6 4 2 7 4 N 1015,7 20
08.08.2018 23:00:00 17,2 11,0 4 2 - - N 1015,6 20
08.08.2018 22:00:00 17,1 11,1 4 2 7 4 N 1015,5 0,8
08.08.2018 21:00:00 20,1 10,7 4 2 14 8 N 1014,8 20
08.08.2018 20:00:00 21,8 10,0 7 4 - - WNW 1015,0 20
08.08.2018 19:00:00 21,9 10,9 7 4 18 10 W 1014,7 20
08.08.2018 18:00:00 21,6 9,9 11 6 25 14 WZW 1014,8 20
08.08.2018 17:00:00 22,0 9,9 14 8 - - W 1014,8 20

tt = temperatuur
td = dauwpunt
ff = windsnelheid
fx = windstoten
dd = windrichting
ppp = luchtdruk
vv = zicht

Weerstations in de omgeving